Location: Mexico
(19.4000°N, 99.1500°W)
Time: 04:54:02
(UTC-06:00)

ISS - Pass Details

Date: 18 March 2019
Orbit: 408 x 411 km, 51.6° (Epoch: 24 March)

Event Time Altitude Azimuth Distance (km) Brightness Sun altitude
Exits shadow 05:29:42 13° 343° (NNW) 1,320 -1.4 -18.0°
Maximum altitude 05:32:23 36° 49° (NE) 656 -2.3 -17.4°
Drops below altitude 10° 05:35:27 10° 118° (ESE) 1,461 -0.2 -16.6°
Sets 05:37:38 0° 127° (SE) 2,320 0.8 -16.1°
